Regional Weather Roundup
Issued by NWS

Home | Current Version | Previous Version | Graphics & Text | Print | Product List | Glossary On
Versions: 1 2 3 4 5 6 7 8 9 10 11 12 13 14 15 16 17 18 19 20 21 22 23 24 25 26 27 28 29 30 31 32 33 34 35 36 37 38 39 40 41 42 43 44 45 46 47 48 49 50
073
ASUS45 KCYS 182210
RWRWY

WYOMING REGIONAL WEATHER ROUNDUP
NATIONAL WEATHER SERVICE CHEYENNE WY
300 PM MST WED JAN 18 2017

NOTE:  "FAIR" INDICATES FEW OR NO CLOUDS BELOW 12,000 FEET
WITH NO SIGNIFICANT WEATHER AND/OR OBSTRUCTIONS TO VISIBILITY.

WYZ001-182300-
YELLOWSTONE NATIONAL PARK

CITY           SKY/WX    TMP DP  RH WIND       PRES   REMARKS
LK YELLOWSTONE   N/A     21  12  68 CALM      29.92F
W YELLOWSTONE  NOT AVBL

$$
WYZ002>013-054>058-071-098>099-182300-
NORTHERN WYOMING

CITY           SKY/WX    TMP DP  RH WIND       PRES   REMARKS
JACKSON        SUNNY      9   5  85 CALM      29.95F
CODY           FAIR      30  18  60 CALM      29.73F
GREYBULL       FAIR      20   9  62 NE3       29.76F
WORLAND        FAIR      33  21  61 N3        29.73F
SHERIDAN       FAIR      36  23  59 VRB5      29.61F WCI  32
BUFFALO        FAIR      46  26  45 W3        29.65F
GILLETTE       FAIR      49  23  36 SW7       29.65F
HULETT         FAIR      50  23  34 W7        29.65F
NEWCASTLE      FAIR      43  23  45 CALM      29.70F

$$
WYZ014>020-022>026-101>103-182300-
CENTRAL WYOMING

CITY           SKY/WX    TMP DP  RH WIND       PRES   REMARKS
BIG PINEY      FAIR       6   0  76 E6        29.94F WCI  -4
PINEDALE       FAIR      10   3  72 CALM      29.93F
DUBOIS         NOT AVBL
LANDER         FAIR      22  11  62 NE3       29.82F
RIVERTON       FAIR      20   9  62 NW5       29.84F WCI  13
CASPER         FAIR      40  19  43 SW35G46   29.77F WCI  28
DOUGLAS        FAIR      56  17  21 W15       29.72F

$$
WYZ021-027>030-104>119-182300-
SOUTHERN WYOMING

CITY           SKY/WX    TMP DP  RH WIND       PRES   REMARKS
EVANSTON       FAIR      26  11  52 S6        29.92F WCI  19
ROCK SPRINGS   FAIR       9   3  77 CALM      29.93F
RAWLINS        FAIR      33  21  61 VRB3      29.92F
LARAMIE        FAIR      28  17  63 NE7       29.85F WCI  21
CHEYENNE       FAIR      53  15  22 W12       29.78S
TORRINGTON     FAIR      56  17  21 W6        29.72F

$$




USA.gov is the U.S. government's official web portal to all federal, state and local government web resources and services.